Hobart, OK

11:24 PM CST on February 23, 2017 (GMT -0600)
Hobart Municipal

Weather History for KHBR - December, 2013

Change the Weather History Date:

Wednesday, December 25, 2013

  Actual Average Record
Temperature  
Mean Temperature 38 °F -  
Max Temperature 48 °F 47 °F 70 °F (2016)
Min Temperature 28 °F 25 °F 12 °F (1998)
Degree Days  
Heating Degree Days 27    
Moisture  
Dew Point 30 °F    
Average Humidity 87    
Maximum Humidity 100    
Minimum Humidity 52    
Precipitation  
Precipitation 0.00 in - - ()
Sea Level Pressure  
Sea Level Pressure 30.36 in    
Wind  
Wind Speed 12 mph (NNE)    
Max Wind Speed 20 mph    
Max Gust Speed 24 mph    
Visibility 5 miles    
Events Fog    
Averages and records for this station are not official NWS values.
T = Trace of Precipitation, MM = Missing Value Source: NWS Daily Summary

Daily Weather History Graph

Daily Weather History Graph

Search for Another Location

Airport or City:

Trip Planner

Search our weather history database for the weather conditions in past years. The results will help you decide how hot, cold, wet, or windy it might be!

Date:

Astronomy

Dec. 25, 2013 Rise Set
Actual Time 7:42 AM CST 5:30 PM CST
Civil Twilight 7:14 AM CST 5:58 PM CST
Nautical Twilight 6:42 AM CST 6:30 PM CST
Astronomical Twilight 6:11 AM CST 7:01 PM CST
Moon 12:24 AM CST (12/25) 12:23 PM CST (12/25)
Length of Visible Light 10h 44m
Length of Day
9h 48m
Waning Gibbous, 48% of the Moon is Illuminated
Dec 25
Waning Gibbous
Jan 1
New
Jan 7
First Quarter
Jan 15
Full
Jan 23
Last Quarter

Hourly Weather History & Observations

Time (CST) Temp. Windchill Dew Point Humidity Pressure Visibility Wind Dir Wind Speed Gust Speed Precip Events Conditions
12:03 AM 30.2 °F 19.8 °F 30.2 °F 100% 30.22 in 1.5 mi North 13.8 mph - N/A   Mostly Cloudy
12:26 AM 30.2 °F 18.9 °F 30.2 °F 100% 30.23 in 0.8 mi NNE 16.1 mph - N/A   Overcast
12:53 AM 30.9 °F 21.2 °F 30.9 °F 100% 30.27 in 0.8 mi NE 12.7 mph - N/A   Mist
1:06 AM 30.2 °F 20.8 °F 30.2 °F 100% 30.22 in 1.0 mi NE 11.5 mph - N/A   Overcast
1:15 AM 30.2 °F 20.8 °F 30.2 °F 100% 30.23 in 0.8 mi NE 11.5 mph - N/A   Mist
1:53 AM 30.0 °F 20.0 °F 30.0 °F 100% 30.27 in 0.5 mi NNE 12.7 mph - N/A Fog Light Freezing Fog
2:53 AM 30.0 °F 21.1 °F 30.0 °F 100% 30.28 in 0.8 mi NE 10.4 mph - N/A   Mist
3:53 AM 30.0 °F 21.7 °F 30.0 °F 100% 30.29 in 0.2 mi NE 9.2 mph - N/A Fog Light Freezing Fog
4:53 AM 30.0 °F 21.1 °F 30.0 °F 100% 30.31 in 1.0 mi NNE 10.4 mph - N/A   Mist
5:28 AM 30.2 °F 20.2 °F 28.4 °F 93% 30.28 in 0.5 mi NE 12.7 mph - N/A Fog Light Freezing Fog
5:45 AM 30.2 °F 19.3 °F 28.4 °F 93% 30.29 in 1.2 mi NE 15.0 mph - N/A   Overcast
5:53 AM 30.0 °F 18.7 °F 28.9 °F 96% 30.32 in 1.2 mi NNE 16.1 mph - N/A   Overcast
6:53 AM 30.0 °F 20.5 °F 30.0 °F 100% 30.35 in 1.8 mi NNE 11.5 mph - N/A   Overcast
7:17 AM 30.2 °F 19.8 °F 28.4 °F 93% 30.33 in 2.5 mi NNE 13.8 mph - N/A   Overcast
7:25 AM 30.2 °F 20.2 °F 28.4 °F 93% 30.33 in 3.0 mi NNE 12.7 mph - N/A   Overcast
7:53 AM 28.9 °F 20.4 °F 28.0 °F 96% 30.38 in 4.0 mi NNE 9.2 mph - N/A   Mostly Cloudy
8:03 AM 28.4 °F 20.4 °F 28.4 °F 100% 30.35 in 2.5 mi NNE 8.1 mph - N/A   Scattered Clouds
8:22 AM 28.4 °F 20.4 °F 28.4 °F 100% 30.36 in 3.0 mi NNE 8.1 mph - N/A   Clear
8:53 AM 30.9 °F 21.7 °F 28.9 °F 92% 30.40 in 5.0 mi NNE 11.5 mph - N/A   Clear
9:53 AM 34.0 °F 23.8 °F 32.0 °F 92% 30.42 in 6.0 mi NNE 16.1 mph - N/A   Partly Cloudy
10:53 AM 37.9 °F 27.9 °F 30.9 °F 76% 30.43 in 9.0 mi NNE 19.6 mph - N/A   Clear
11:53 AM 41.0 °F 32.8 °F 32.0 °F 70% 30.44 in 10.0 mi NNE 16.1 mph 24.2 mph N/A   Clear
12:53 PM 44.1 °F 36.5 °F 33.1 °F 65% 30.42 in 10.0 mi North 17.3 mph - N/A   Scattered Clouds
1:53 PM 46.9 °F - 34.0 °F 61% 30.40 in 10.0 mi NNE 15.0 mph - N/A   Clear
2:53 PM 48.0 °F - 30.9 °F 52% 30.40 in 10.0 mi NNE 15.0 mph - N/A   Clear
3:53 PM 48.0 °F - 32.0 °F 54% 30.41 in 10.0 mi NNE 11.5 mph - N/A   Clear
4:53 PM 46.0 °F 43.1 °F 33.1 °F 61% 30.41 in 10.0 mi NNE 5.8 mph - N/A   Clear
5:53 PM 41.0 °F 38.0 °F 32.0 °F 70% 30.42 in 10.0 mi North 4.6 mph - N/A   Clear
6:53 PM 37.0 °F - 30.9 °F 79% 30.45 in 10.0 mi Calm Calm - N/A   Clear
7:53 PM 37.9 °F - 30.0 °F 73% 30.45 in 10.0 mi Calm Calm - N/A   Clear
8:53 PM 32.0 °F 24.8 °F 28.0 °F 85% 30.47 in 10.0 mi NW 8.1 mph - N/A   Clear
9:53 PM 30.0 °F 23.2 °F 26.1 °F 85% 30.47 in 10.0 mi WNW 6.9 mph - N/A   Clear
10:53 PM 28.9 °F 23.9 °F 25.0 °F 85% 30.46 in 10.0 mi NW 4.6 mph - N/A   Clear
11:53 PM 30.9 °F 22.8 °F 26.1 °F 82% 30.46 in 10.0 mi NNW 9.2 mph - N/A   Clear